TimeCEST,TemperatureF,Dew PointF,Humidity,Sea Level PressureIn,VisibilityMPH,Wind Direction,Wind SpeedMPH,Gust SpeedMPH,PrecipitationIn,Events,Conditions,WindDirDegrees,DateUTC
12:00 AM,60.8,51.8,72,30.21,-9999.0,North,2.3,-,N/A,,Clear,10,2013-07-17 22:00:00
12:30 AM,60.8,51.8,72,30.21,-9999.0,Variable,2.3,-,N/A,,Clear,0,2013-07-17 22:30:00
1:00 AM,60.8,51.8,72,30.21,-9999.0,NW,3.5,-,N/A,,Clear,320,2013-07-17 23:00:00
1:30 AM,59.0,51.8,77,30.21,-9999.0,NW,3.5,-,N/A,,Clear,320,2013-07-17 23:30:00
2:00 AM,60,51,65,30.21,19,NW,2.2,,,,Clear,320,2013-07-18 00:00:00
2:00 AM,59.0,51.8,77,30.21,-9999.0,WNW,3.5,-,N/A,,Clear,300,2013-07-18 00:00:00
2:30 AM,60.8,51.8,72,30.21,-9999.0,NW,3.5,-,N/A,,Clear,320,2013-07-18 00:30:00
3:00 AM,59.0,51.8,77,30.21,-9999.0,NW,2.3,-,N/A,,Clear,310,2013-07-18 01:00:00
3:30 AM,57.2,51.8,82,30.21,-9999.0,NW,4.6,-,N/A,,Clear,320,2013-07-18 01:30:00
4:00 AM,57.2,51.8,82,30.21,-9999.0,NW,3.5,-,N/A,,Clear,310,2013-07-18 02:00:00
4:30 AM,59.0,51.8,77,30.21,-9999.0,Variable,2.3,-,N/A,,Clear,0,2013-07-18 02:30:00
5:00 AM,59.0,51.8,77,30.21,-9999.0,NNW,4.6,-,N/A,,Clear,340,2013-07-18 03:00:00
5:30 AM,59.0,51.8,77,30.21,-9999.0,North,4.6,-,N/A,,Clear,350,2013-07-18 03:30:00
6:00 AM,59.0,51.8,77,30.21,-9999.0,NNW,4.6,-,N/A,,Clear,330,2013-07-18 04:00:00
6:30 AM,59.0,51.8,77,30.21,-9999.0,NNW,5.8,-,N/A,,Clear,340,2013-07-18 04:30:00
7:00 AM,62.6,53.6,72,30.21,-9999.0,North,3.5,-,N/A,,Clear,360,2013-07-18 05:00:00
7:30 AM,64.4,55.4,73,30.21,-9999.0,NNE,3.5,-,N/A,,Clear,30,2013-07-18 05:30:00
8:00 AM,66,55,58,30.21,19,NNW,2.2,,,,Clear,340,2013-07-18 06:00:00
8:00 AM,66.2,55.4,68,30.21,-9999.0,North,2.3,-,N/A,,Clear,360,2013-07-18 06:00:00
8:30 AM,68.0,55.4,64,30.24,-9999.0,North,3.5,-,N/A,,Clear,10,2013-07-18 06:30:00
9:00 AM,69.8,55.4,60,30.24,-9999.0,NE,3.5,-,N/A,,Clear,50,2013-07-18 07:00:00
9:30 AM,71.6,57.2,60,30.24,-9999.0,East,5.8,-,N/A,,Clear,90,2013-07-18 07:30:00
10:00 AM,73.4,57.2,57,30.24,-9999.0,ENE,3.5,-,N/A,,Clear,70,2013-07-18 08:00:00
10:30 AM,73.4,57.2,57,30.24,-9999.0,NE,5.8,-,N/A,,Clear,40,2013-07-18 08:30:00
11:00 AM,75.2,55.4,50,30.24,6.2,NE,5.8,-,N/A,,Partly Cloudy,50,2013-07-18 09:00:00
11:30 AM,75.2,55.4,50,30.21,6.2,NNE,6.9,-,N/A,,Partly Cloudy,20,2013-07-18 09:30:00
12:00 PM,77.0,55.4,47,30.21,6.2,NNE,6.9,-,N/A,,Scattered Clouds,20,2013-07-18 10:00:00
12:30 PM,77.0,53.6,44,30.21,6.2,North,8.1,-,N/A,,Scattered Clouds,10,2013-07-18 10:30:00
1:00 PM,77.0,53.6,44,30.21,-9999.0,ENE,4.6,-,N/A,,Clear,60,2013-07-18 11:00:00
1:30 PM,78.8,53.6,42,30.21,-9999.0,NNE,5.8,-,N/A,,Clear,20,2013-07-18 11:30:00
2:00 PM,80,56,33,30.16,25,North,6.7,,,,Partly Cloudy,10,2013-07-18 12:00:00
2:00 PM,80.6,55.4,42,30.21,-9999.0,ENE,4.6,-,N/A,,Clear,70,2013-07-18 12:00:00
2:30 PM,78.8,53.6,42,30.21,-9999.0,North,8.1,-,N/A,,Clear,10,2013-07-18 12:30:00
3:00 PM,80.6,55.4,42,30.21,-9999.0,Variable,4.6,-,N/A,,Clear,0,2013-07-18 13:00:00
3:30 PM,77.0,55.4,47,30.18,-9999.0,NNE,11.5,-,N/A,,Clear,30,2013-07-18 13:30:00
4:00 PM,78.8,53.6,42,30.18,-9999.0,NNE,8.1,-,N/A,,Clear,30,2013-07-18 14:00:00
4:30 PM,78.8,53.6,42,30.18,-9999.0,NE,8.1,-,N/A,,Clear,40,2013-07-18 14:30:00
5:00 PM,80.6,53.6,39,30.18,-9999.0,NE,8.1,-,N/A,,Clear,40,2013-07-18 15:00:00
5:30 PM,80.6,55.4,42,30.18,-9999.0,North,9.2,-,N/A,,Clear,10,2013-07-18 15:30:00
6:00 PM,78.8,55.4,44,30.15,-9999.0,North,8.1,-,N/A,,Clear,360,2013-07-18 16:00:00
6:30 PM,78.8,55.4,44,30.15,-9999.0,NNE,8.1,-,N/A,,Clear,30,2013-07-18 16:30:00
7:00 PM,78.8,57.2,47,30.15,-9999.0,North,9.2,-,N/A,,Clear,350,2013-07-18 17:00:00
7:30 PM,75.2,55.4,50,30.15,-9999.0,NNE,11.5,-,N/A,,Clear,20,2013-07-18 17:30:00
8:00 PM,75.2,55.4,50,30.15,-9999.0,NNE,6.9,-,N/A,,Clear,20,2013-07-18 18:00:00
8:30 PM,73.4,55.4,53,30.15,-9999.0,NNE,6.9,-,N/A,,Clear,30,2013-07-18 18:30:00
9:00 PM,73.4,55.4,53,30.15,-9999.0,NE,5.8,-,N/A,,Clear,40,2013-07-18 19:00:00
9:30 PM,71.6,55.4,57,30.18,-9999.0,NE,5.8,-,N/A,,Clear,40,2013-07-18 19:30:00
10:00 PM,69.8,55.4,60,30.18,-9999.0,North,4.6,-,N/A,,Clear,10,2013-07-18 20:00:00
10:30 PM,68.0,55.4,64,30.18,-9999.0,North,3.5,-,N/A,,Clear,10,2013-07-18 20:30:00
11:00 PM,68.0,55.4,64,30.18,-9999.0,NNE,3.5,-,N/A,,Clear,20,2013-07-18 21:00:00
11:30 PM,66.2,55.4,68,30.18,-9999.0,NNE,3.5,-,N/A,,Clear,20,2013-07-18 21:30:00